Location: Elende
(51.4317°N, 10.6316°E)
Time: 03:44:08
(UTC+00:00)

Cosmos 1626 - Pass Details

Date: 18 September 2020
Orbit: 490 x 495 km, 82.5° (Epoch: 22 October)

Event Time Altitude Azimuth Distance (km) Brightness Sun altitude
Rises 20:12:22 0° 345° (NNW) 2,591 6.6 -25.0°
Reaches altitude 10° 20:14:32 10° 341° (NNW) 1,702 5.6 -25.3°
Enters shadow 20:17:30 45° 302° (WNW) 687 3.1 -25.6°
